Hourly Weather Roundup
Issued by NWS Central Illinois

Home | Current Version | Previous Version | Text Only | Print | Product List | Glossary On
Versions: 1 2 3 4 5 6 7 8 9 10 11 12 13 14 15 16 17 18 19 20 21 22 23 24 25 26 27 28 29 30 31 32 33 34 35 36 37 38 39 40 41 42 43 44 45 46 47 48 49 50
012
NZUS43 KILX 130010
HWRILX

AREA WEATHER ROUNDUP
NATIONAL WEATHER SERVICE, LINCOLN IL
600 PM CST FRI FEB 12 2016


CITY           SKY/WX    TMP DP  RH WIND       PRES   REMARKS
BLOOMINGTON    CLEAR     20   3  47 NW16G23   30.32R WCI   6
6HR MIN TEMP:  20; 6HR MAX TEMP:  28; 6HR PCP: TRACE;

CHAMPAIGN      CLEAR     22   6  50 NW20G29   30.29R WCI   7
6HR MIN TEMP:  22; 6HR MAX TEMP:  28; 6HR PCP: TRACE;

DANVILLE       CLOUDY    23   9  55 NW18G25   30.24R WCI   8
6HR MIN TEMP:  23; 6HR MAX TEMP:  25;

DECATUR        CLEAR     24   8  50 NW22G28   30.32R WCI   9
6HR MIN TEMP:  24; 6HR MAX TEMP:  28; 6HR PCP: TRACE;

EFFINGHAM      PTCLDY    26  17  69 W12       30.36R WCI  15
FLORA          PTCLDY    27  15  60 NW13G20   30.36R WCI  17
6HR MIN TEMP:  27; 6HR MAX TEMP:  33;

GALESBURG      CLEAR     17   2  52 NW14      30.40R WCI   3
JACKSONVILLE   PTCLDY    26  10  51 NW15G22   30.40R WCI  13
6HR MIN TEMP:  26; 6HR MAX TEMP:  31;

LACON          CLEAR     18   3  50 NW18G24   30.36R WCI   2
6HR MIN TEMP:  18; 6HR MAX TEMP:  28;

LAWRENCEVILLE  CLOUDY    27  15  61 NW23G31   30.32R WCI  12
6HR MIN TEMP:  27; 6HR MAX TEMP:  31; 6HR PCP: TRACE;

LITCHFIELD     CLEAR     24  11  59 NW18G25   30.38R WCI  10
$$


CITY           SKY/WX    TMP DP  RH WIND       PRES   REMARKS
LINCOLN        CLEAR     24   4  43 NW15G23   30.35R WCI  11
6HR MIN TEMP:  24; 6HR MAX TEMP:  30;

MACOMB         CLEAR     19   5  54 NW22      30.44R WCI   3
MATTOON        CLEAR     23  11  60 NW17      30.30R WCI   9
6HR MIN TEMP:  23; 6HR MAX TEMP:  28; 6HR PCP: TRACE;

MT CARMEL AP   PTCLDY    28  14  54 NW17G25   30.33R WCI  16
OLNEY-NOBLE AP MOCLDY    27  16  63 NW15G23   30.35R WCI  15
PARIS          MOCLDY    24  13  62 NW15G22   30.29R WCI  12
6HR MIN TEMP:  24; 6HR MAX TEMP:  28;

PEORIA         CLEAR     19  -1  41 NW12G25   30.38R WCI   7
6HR MIN TEMP:  19; 6HR MAX TEMP:  29;

PONTIAC        CLEAR     21   7  53 NW20G31   30.32R WCI   6
RANTOUL        CLEAR     24  10  55 NW14G24   30.29R WCI  11
6HR MIN TEMP:  24; 6HR MAX TEMP:  29;

ROBINSON       MOCLDY    26  14  62 NW18      30.33R WCI  12
6HR MIN TEMP:  26; 6HR MAX TEMP:  29;

SPRINGFIELD    CLEAR     24   8  50 NW14      30.38R WCI  12
6HR MIN TEMP:  24; 6HR MAX TEMP:  29; 6HR PCP: TRACE;

TAYLORVILLE    CLEAR     25  12  58 W20G25    30.36R WCI  11
$$

...REGIONAL REPORTS...


CITY           SKY/WX    TMP DP  RH WIND       PRES   REMARKS
CHICAGO O`HARE PTCLDY    17  -2  43 N20       30.26R WCI   1
KANKAKEE       MOCLDY    21   5  49 NW15G25   30.28R WCI   8
MOLINE         CLEAR     16   1  51 NW18G24   30.42R WCI   0
MOUNT STERLING CLEAR     20   7  58 NW21      30.41R WCI   4
MOUNT VERNON   PTCLDY    27  12  54 W3        30.38R
PITTSFIELD     CLEAR     23  10  56 W9        30.44R WCI  13
QUINCY         CLEAR     19   5  54 NW18      30.44R WCI   4
ROCKFORD       PTCLDY    17  -3  41 NW21G28   30.33R WCI   0
$$


CITY           SKY/WX    TMP DP  RH WIND       PRES   REMARKS
BURLINGTON     CLEAR     18   2  49 NW15G26   30.44R WCI   4
CEDAR RAPIDS   CLEAR     12   1  61 NW18G29   30.46R WCI  -6
DES MOINES     PTCLDY    13   0  56 NW18      30.54R WCI  -4
KIRKSVILLE     CLEAR     18   1  47 N7        30.49R WCI   9
OTTUMWA        CLEAR     13   4  67 NW21      30.50R WCI  -5
ST LOUIS       PTCLDY    28  14  55 NW12      30.41R WCI  18
$$


CITY           SKY/WX    TMP DP  RH WIND       PRES   REMARKS
TERRE HAUTE    PTCLDY    24  12  60 NW7       30.28R WCI  16
EVANSVILLE     PTCLDY    29  15  56 NW10G26   30.34R WCI  20
INDIANAPOLIS   MOCLDY    23   9  55 W17       30.21R WCI   9
LAFAYETTE      CLEAR     20   6  55 NW18G24   30.24R WCI   5
MADISON        CLEAR     10  -7  46 NW12G21   30.33R WCI  -5
MILWAUKEE      PTCLDY    12  -6  44 NW16G29   30.29R WCI  -5
$$






USA.gov is the U.S. government's official web portal to all federal, state and local government web resources and services.